Ubon Ratchathani, Thailand

11:17 AM +07 on December 16, 2017 (GMT +0700)
Ubon Ratchathani

Weather History for VTUU - November, 2012

Change the Weather History Date:

Monday, November 19, 2012

  Actual Average Record
Temperature  
Mean Temperature 82 °F -  
Max Temperature 92 °F 86 °F - ()
Min Temperature 71 °F 65 °F - ()
Cooling Degree Days 16    
Growing Degree Days 32 (Base 50)    
Moisture  
Dew Point 71 °F    
Average Humidity 69    
Maximum Humidity 88    
Minimum Humidity 46    
Precipitation  
Precipitation 0.00 in 0.01 in - ()
Sea Level Pressure  
Sea Level Pressure 29.83 in    
Wind  
Wind Speed 4 mph ()    
Max Wind Speed 7 mph    
Max Gust Speed -    
Visibility 5.9 miles    
Events      
T = Trace of Precipitation, MM = Missing Value Source: Averaged Metar Reports

Daily Weather History Graph

Daily Weather History Graph

Search for Another Location

Airport or City:

Trip Planner

Search our weather history database for the weather conditions in past years. The results will help you decide how hot, cold, wet, or windy it might be!

Date:

Astronomy

Nov. 19, 2012 Rise Set
Actual Time 6:04 AM +07 5:27 PM +07
Civil Twilight 5:41 AM +07 5:50 PM +07
Nautical Twilight 5:15 AM +07 6:16 PM +07
Astronomical Twilight 4:49 AM +07 6:42 PM +07
Moon 11:02 AM +07 (11/19) 10:59 PM +07 (11/19)
Length of Visible Light 12h 08m
Length of Day
11h 23m
Waxing Crescent, 35% of the Moon is Illuminated
Nov 19
Waxing Crescent
Nov 20
First Quarter
Nov 28
Full
Dec 6
Last Quarter
Dec 13
New

Hourly Weather History & Observations

Time (+07) Temp. Heat Index Dew Point Humidity Pressure Visibility Wind Dir Wind Speed Gust Speed Precip Events Conditions
12:00 AM 77.0 °F - 69.8 °F 78% 29.86 in 6.2 mi North 4.6 mph - N/A   Mostly Cloudy
1:00 AM 76 °F - 69 °F 74% 29.86 in 6 mi North 4.6 mph - -   Scattered Clouds
1:00 AM 75.2 °F - 69.8 °F 83% 29.86 in 6.2 mi North 4.6 mph - N/A   Mostly Cloudy
2:00 AM 75.2 °F - 68.0 °F 78% 29.83 in 6.2 mi North 4.6 mph - N/A   Mostly Cloudy
4:00 AM 75.2 °F - 69.8 °F 83% 29.83 in 5.6 mi North 2.3 mph - N/A   Scattered Clouds
6:00 AM 73.4 °F - 69.8 °F 88% 29.86 in 5.6 mi NNE 2.3 mph - N/A   Mostly Cloudy
7:00 AM 74 °F - 71 °F 88% 29.87 in 6 mi NNE 2.3 mph - -   Mist
7:00 AM 73.4 °F - 69.8 °F 88% 29.86 in 5.6 mi NNE 2.3 mph - N/A   Mostly Cloudy
8:00 AM 77.0 °F - 69.8 °F 78% 29.89 in - NE 4.6 mph - N/A   Clear
9:00 AM 80.6 °F 83.9 °F 69.8 °F 70% 29.89 in - NNE 5.8 mph - N/A   Clear
10:00 AM 84.2 °F 89.6 °F 71.6 °F 66% 29.89 in 6.2 mi NNE 2.3 mph - N/A   Scattered Clouds
11:00 AM 86.0 °F 91.8 °F 71.6 °F 62% 29.86 in 6.2 mi NE 3.5 mph - N/A   Mostly Cloudy
1:00 PM 90 °F - 72 °F 46% 29.83 in 6 mi ENE 3.5 mph - -   Mostly Cloudy
1:00 PM 91.4 °F 98.4 °F 71.6 °F 52% 29.83 in 6.2 mi ENE 5.8 mph - N/A   Mostly Cloudy
2:00 PM 91.4 °F 98.4 °F 71.6 °F 52% 29.80 in 6.2 mi NW 4.6 mph - N/A   Mostly Cloudy
3:00 PM 91.4 °F 98.4 °F 71.6 °F 52% 29.77 in 6.2 mi NE 5.8 mph - N/A   Mostly Cloudy
4:00 PM 91.4 °F 100.1 °F 73.4 °F 55% 29.77 in 6.2 mi NNE 4.6 mph - N/A   Mostly Cloudy
5:00 PM 89.6 °F 98.2 °F 73.4 °F 59% 29.77 in 6.2 mi NNW 4.6 mph - N/A   Mostly Cloudy
5:30 PM 87.8 °F 95.6 °F 73.4 °F 62% 29.77 in 5.6 mi North 2.3 mph - N/A   Mostly Cloudy
6:00 PM 86.0 °F 93.4 °F 73.4 °F 66% 29.80 in 5.6 mi NW 3.5 mph - N/A   Mostly Cloudy
7:00 PM 85 °F - 74 °F 63% 29.82 in 6 mi North 3.5 mph - -   Mist
7:00 PM 84.2 °F 90.9 °F 73.4 °F 70% 29.80 in 5.6 mi North 3.5 mph - N/A   Mostly Cloudy
8:00 PM 84.2 °F 89.6 °F 71.6 °F 66% 29.83 in 5.6 mi NNE 2.3 mph - N/A   Mostly Cloudy
9:00 PM 82.4 °F 87.2 °F 71.6 °F 70% 29.83 in 5.6 mi NE 6.9 mph - N/A   Mostly Cloudy
10:00 PM 80.6 °F 84.6 °F 71.6 °F 74% 29.86 in 5.6 mi North 2.3 mph - N/A   Mostly Cloudy
11:00 PM 80.6 °F 84.6 °F 71.6 °F 74% 29.83 in 5.6 mi NNE 3.5 mph - N/A   Mostly Cloudy